Location: Unspecified
(0.0000°N, 0.0000°E)
Time: 12:43:53
(UTC+00:00)

Transit 2A - Visible Passes

Search period start: 07 October 2022 00:00
Search period end: 17 October 2022 00:00
Orbit: 601 x 956 km, 66.7° (Epoch: 06 October)

Date Brightness Start Highest point End Pass type
(mag) Time Alt. Az. Time Alt. Az. Time Alt. Az.
07 Oct 8.3 19:49:17 10° S 19:49:42 12° S 19:49:42 12° S visible
08 Oct 7.7 19:15:33 10° SSE 19:17:12 17° SSE 19:17:12 17° SSE visible
09 Oct 7.5 18:42:30 10° SSE 18:44:48 15° ESE 18:44:48 15° ESE visible
09 Oct 8.5 20:24:05 10° SW 20:25:21 16° WSW 20:25:21 16° WSW visible
10 Oct 6.8 19:49:10 10° SW 19:53:04 43° WSW 19:53:04 43° WSW visible
11 Oct 5.6 19:14:38 10° SSW 19:19:43 90° NNE 19:20:53 52° NNE visible
12 Oct 6.0 18:40:28 10° S 18:45:21 49° ESE 18:48:46 17° NE visible
13 Oct 6.7 18:06:41 10° S 18:10:58 28° ESE 18:14:55 10° NE visible
13 Oct 8.5 19:51:15 10° WSW 19:53:44 14° WNW 19:56:08 10° NW visible
14 Oct 7.9 19:15:27 10° SW 19:19:27 25° WNW 19:23:11 10° NNW visible
15 Oct 6.9 18:40:27 10° SW 18:45:10 45° WNW 18:49:30 10° N visible
16 Oct 5.9 18:05:52 10° SSW 18:10:52 83° WNW 18:15:24 10° NNE visible
